Elizabeth City, NC

8:51 AM EST on November 23, 2017 (GMT -0500)
Elizabeth City Cgas-Regional

Weather History for KECG - October, 2011

Change the Weather History Date:

Saturday, October 29, 2011

  Actual Average Record
Temperature  
Mean Temperature 52 °F 58 °F  
Max Temperature 65 °F 69 °F 83 °F (1946)
Min Temperature 39 °F 47 °F 26 °F (1976)
Degree Days  
Heating Degree Days 13 8  
Month to date heating degree days 113 124  
Since 1 July heating degree days 116 136  
Cooling Degree Days 0 1  
Month to date cooling degree days 43 55  
Year to date cooling degree days 1960 1577  
Growing Degree Days 2 (Base 50)    
Moisture  
Dew Point 48 °F    
Average Humidity 86    
Maximum Humidity 96    
Minimum Humidity 76    
Precipitation  
Precipitation 0.07 in 0.10 in 2.19 in (2017)
Month to date precipitation 1.53 2.86  
Year to date precipitation 31.22 40.75  
Snow  
Snow 0.00 in - 0.00 in (2002)
Month to date snowfall 0.0  
Since 1 July snowfall 0.0  
Snow Depth -    
Sea Level Pressure  
Sea Level Pressure 29.87 in    
Wind  
Wind Speed 15 mph (NW)    
Max Wind Speed 29 mph    
Max Gust Speed 37 mph    
Visibility 9 miles    
Events Rain    
T = Trace of Precipitation, MM = Missing Value Source: NWS Daily Summary

Daily Weather History Graph

Daily Weather History Graph

Search for Another Location

Airport or City:

Trip Planner

Search our weather history database for the weather conditions in past years. The results will help you decide how hot, cold, wet, or windy it might be!

Date:

Astronomy

Oct. 29, 2011 Rise Set
Actual Time 7:24 AM EDT 6:11 PM EDT
Civil Twilight 6:57 AM EDT 6:38 PM EDT
Nautical Twilight 6:27 AM EDT 7:08 PM EDT
Astronomical Twilight 5:57 AM EDT 7:38 PM EDT
Moon 10:38 AM EDT (10/29) 8:38 PM EDT (10/29)
Length of Visible Light 11h 40m
Length of Day
10h 47m
Waxing Crescent, 11% of the Moon is Illuminated
Oct 29
Waxing Crescent
Nov 2
First Quarter
Nov 10
Full
Nov 18
Last Quarter
Nov 25
New

Hourly Weather History & Observations

Time (EDT) Temp. Windchill Dew Point Humidity Pressure Visibility Wind Dir Wind Speed Gust Speed Precip Events Conditions
12:54 AM 57.9 °F - 52.0 °F 81% 29.99 in 10.0 mi ENE 12.7 mph - N/A   Overcast
1:54 AM 57.9 °F - 54.0 °F 87% 29.97 in 10.0 mi NE 10.4 mph - 0.00 in   Overcast
2:54 AM 59.0 °F - 54.0 °F 83% 29.94 in 10.0 mi ENE 13.8 mph - N/A   Overcast
3:54 AM 60.1 °F - 55.0 °F 83% 29.90 in 10.0 mi ENE 10.4 mph - N/A   Overcast
4:54 AM 60.1 °F - 55.9 °F 86% 29.86 in 10.0 mi ENE 13.8 mph - N/A   Overcast
5:54 AM 60.8 °F - 57.2 °F 88% 29.83 in 10.0 mi ENE 12.7 mph - N/A Rain Light Rain
6:54 AM 62.6 °F - 59.0 °F 88% 29.80 in 10.0 mi ENE 9.2 mph - N/A   Overcast
7:10 AM 62.6 °F - 59.0 °F 88% 29.80 in 10.0 mi ENE 8.1 mph - N/A   Overcast
7:54 AM 63.0 °F - 60.1 °F 90% 29.78 in 8.0 mi East 8.1 mph - N/A   Overcast
8:11 AM 62.6 °F - 60.8 °F 94% 29.78 in 8.0 mi ESE 8.1 mph - N/A   Overcast
8:54 AM 64.0 °F - 61.0 °F 90% 29.77 in 5.0 mi SE 8.1 mph - 0.01 in Rain Light Rain
9:26 AM 64.4 °F - 62.6 °F 94% 29.78 in 2.0 mi SSW 5.8 mph 17.3 mph 0.03 in Rain Light Rain
9:54 AM 64.9 °F - 63.0 °F 93% 29.78 in 2.0 mi SSW 5.8 mph - 0.03 in   Overcast
10:13 AM 60.8 °F - 59.0 °F 94% 29.79 in 6.0 mi West 13.8 mph - 0.03 in Rain Light Rain
10:54 AM 55.4 °F - 53.6 °F 94% 29.79 in 10.0 mi West 19.6 mph - N/A   Overcast
11:54 AM 54.0 °F - 52.0 °F 93% 29.78 in 10.0 mi West 9.2 mph - N/A   Overcast
12:54 PM 52.0 °F - 50.0 °F 93% 29.78 in 10.0 mi West 23.0 mph 27.6 mph N/A   Overcast
1:54 PM 48.9 °F - 46.9 °F 93% 29.78 in 10.0 mi WNW 24.2 mph 28.8 mph N/A   Overcast
2:54 PM 48.0 °F - 44.1 °F 86% 29.80 in 10.0 mi West 19.6 mph 32.2 mph N/A   Overcast
3:54 PM 45.0 °F 36.2 °F 41.0 °F 86% 29.83 in 10.0 mi WNW 24.2 mph 31.1 mph N/A   Overcast
4:16 PM 44.6 °F 35.7 °F 39.2 °F 81% 29.85 in 10.0 mi WNW 24.2 mph 33.4 mph N/A   Overcast
4:54 PM 44.1 °F 35.4 °F 39.0 °F 82% 29.88 in 10.0 mi WNW 21.9 mph 31.1 mph N/A   Overcast
5:20 PM 44.6 °F 36.6 °F 39.2 °F 81% 29.88 in 10.0 mi NW 19.6 mph 27.6 mph N/A   Overcast
5:54 PM 44.1 °F 35.4 °F 37.9 °F 79% 29.91 in 10.0 mi NW 21.9 mph 32.2 mph N/A   Overcast
6:54 PM 44.1 °F 35.7 °F 37.0 °F 76% 29.94 in 10.0 mi NW 20.7 mph 31.1 mph N/A   Overcast
7:54 PM 43.0 °F 34.0 °F 35.1 °F 74% 29.97 in 10.0 mi NW 21.9 mph 31.1 mph N/A   Overcast
8:54 PM 43.0 °F 34.8 °F 35.1 °F 74% 29.99 in 10.0 mi NW 18.4 mph 33.4 mph N/A   Overcast
9:54 PM 42.1 °F 34.5 °F 35.1 °F 76% 30.03 in 10.0 mi NW 15.0 mph - N/A   Mostly Cloudy
10:09 PM 41.0 °F 33.5 °F 35.6 °F 81% 30.03 in 10.0 mi NW 13.8 mph - N/A   Scattered Clouds
10:54 PM 41.0 °F 33.5 °F 35.1 °F 79% 30.05 in 10.0 mi NW 13.8 mph 24.2 mph N/A   Clear
11:54 PM 39.9 °F 32.9 °F 34.0 °F 79% 30.06 in 10.0 mi NW 11.5 mph - N/A   Clear